Regional Weather Roundup
Issued by NWS

Home | Current Version | Previous Version | Graphics & Text | Print | Product List | Glossary On
Versions: 1 2 3 4 5 6 7 8 9 10 11 12 13 14 15 16 17 18 19 20 21 22 23 24 25 26 27 28 29 30 31 32 33 34 35 36 37 38 39 40 41 42 43 44 45 46 47 48 49 50
000
ASUS43 KBIS 290410
RWRND

NORTH DAKOTA REGIONAL WEATHER ROUNDUP
NATIONAL WEATHER SERVICE BISMARCK ND
1100 PM CDT THU MAY 28 2015

NOTE: "FAIR" INDICATES FEW OR NO CLOUDS BELOW 12,000 FEET WITH NO
SIGNIFICANT WEATHER AND/OR OBSTRUCTIONS TO VISIBILITY.


NDZ001>003-009>011-017-290500-
NORTHWEST NORTH DAKOTA

CITY           SKY/WX    TMP DP  RH WIND       PRES   REMARKS
WILLISTON      CLOUDY    52  43  71 N24G32    30.11R
MINOT          CLOUDY    52  46  80 NW22G32   30.01R
MINOT AFB      CLOUDY    53  53 100 N16G29    30.02R
$$

NDZ018>021-031>035-040>046-290500-
SOUTHWEST NORTH DAKOTA

CITY           SKY/WX    TMP DP  RH WIND       PRES   REMARKS
BISMARCK       CLOUDY    66  56  70 N13G18    29.92R
DICKINSON      CLOUDY    61  53  75 N18       29.98R
GARRISON         N/A     60  53  77 N14G25    29.96R
HETTINGER ARPT LGT RAIN  54  51  90 NW8       29.98R
$$

NDZ004>008-012>016-024-026-027-054-290500-
NORTHEAST NORTH DAKOTA

CITY           SKY/WX    TMP DP  RH WIND       PRES   REMARKS
GRAND FORKS    CLOUDY    63  61  93 N8        29.83R
GRND FRKS AFB  CLOUDY    64  62  93 N16       29.85R
DEVILS LAKE    MOCLDY    64  54  68 N14       29.89R
$$

NDZ022-023-025-028>030-036>039-047>053-290500-
SOUTHEAST NORTH DAKOTA

CITY           SKY/WX    TMP DP  RH WIND       PRES   REMARKS
FARGO          LGT RAIN  64  61  90 S8        29.84R
JAMESTOWN      CLOUDY    66  58  75 N14       29.85R
$$




USA.gov is the U.S. government's official web portal to all federal, state and local government web resources and services.